Simultaneous Nadir Overpasses (SNOs) Predictions

Prediction of SNOs between GOES-15 and NPP Satellite Orbit:

Table of predicted SNOs for the next 14.0 days since TLE Epoch: 4/27/2017
Index Date Time (GOES-15) GOES-15 Lat,Lon NPP Lat,Lon Distance(km) Time Diff (sec)
1 04/28/2017 22:39:57 -0.07,-135.48 -0.82,-138.95 394.75 80
2 04/29/2017 22:23:52 -0.07,-135.47 0.19,-134.42 120.59 80
3 05/01/2017 10:43:00 0.07,-135.41 1.04,-139.68 487.47 80
4 05/02/2017 10:26:55 0.07,-135.39 0.03,-135.15 27.65 80
5 05/04/2017 22:27:27 -0.07,-135.41 -0.20,-135.92 58.85 80
6 05/05/2017 22:11:23 -0.08,-135.39 0.81,-131.39 456.08 80
7 05/07/2017 10:30:31 0.07,-135.32 0.36,-136.66 152.63 80
8 05/08/2017 10:14:26 0.07,-135.30 -0.65,-132.13 362.05 80
9 05/09/2017 22:33:43 -0.06,-135.32 -0.53,-137.43 240.26 80
10 05/10/2017 22:17:38 -0.07,-135.30 0.49,-132.90 274.06 80




NCC Satellite Simultaneous Nadir Overpasses (SNOs) Prediction Service
